This is the latest recevied weather packets stored in our database for station/object W4FXD. If no packets are shown the sender has not sent any weather packets the latest 10 day(s).
| Time | Temp. | Humidity | Pressure | Rain* | Wind** | Luminosity | Snow |
|---|---|---|---|---|---|---|---|
| 1777883871 | 10° C | 80% | 1017.5 hPa | 0 mm | - | 0 W/m² | - |
| 1777883568 | 10° C | 78% | 1017.5 hPa | 0 mm | - | 0 W/m² | - |
| 1777883264 | 10° C | 77% | 1017.4 hPa | 0 mm | - | 0 W/m² | - |
| 1777882960 | 10° C | 77% | 1017.4 hPa | 0 mm | - | 0 W/m² | - |
| 1777882657 | 10° C | 78% | 1017.2 hPa | 0 mm | - | 0 W/m² | - |
| 1777882353 | 10° C | 76% | 1017.4 hPa | 0 mm | - | 0 W/m² | - |
| 1777882050 | 10° C | 78% | 1017.6 hPa | 0 mm | - | 0 W/m² | - |
| 1777881746 | 10° C | 78% | 1017.6 hPa | 0 mm | - | 0 W/m² | - |
| 1777881444 | 10° C | 77% | 1017.4 hPa | 0 mm | - | 0 W/m² | - |
| 1777881140 | 10° C | 77% | 1017.5 hPa | 0 mm | - | 0 W/m² | - |
| 1777880839 | 10° C | 77% | 1017.5 hPa | 0 mm | - | 0 W/m² | - |
| 1777880536 | 10° C | 76% | 1017.6 hPa | 0 mm | - | 0 W/m² | - |
| 1777880234 | 10° C | 78% | 1017.7 hPa | 0 mm | - | 0 W/m² | - |
| 1777879933 | 10° C | 77% | 1017.7 hPa | 0 mm | - | 0 W/m² | - |
| 1777879630 | 10.56° C | 77% | 1017.5 hPa | 0 mm | - | 0 W/m² | - |
| 1777879326 | 10.56° C | 77% | 1017.4 hPa | 0 mm | - | 0 W/m² | - |
| 1777879023 | 10.56° C | 74% | 1017.6 hPa | 0 mm | - | 0 W/m² | - |
| 1777878720 | 10.56° C | 74% | 1017.5 hPa | 0 mm | - | 0 W/m² | - |
| 1777878418 | 11.11° C | 74% | 1017.4 hPa | 0 mm | - | 0 W/m² | - |
| 1777878114 | 11.11° C | 71% | 1017.6 hPa | 0 mm | - | 0 W/m² | - |
| 1777877810 | 11.11° C | 72% | 1017.4 hPa | 0 mm | - | 0 W/m² | - |
| 1777877508 | 11.11° C | 71% | 1017.5 hPa | 0 mm | - | 0 W/m² | - |
| 1777877204 | 11.11° C | 70% | 1017.6 hPa | 0 mm | - | 0 W/m² | - |
| 1777876902 | 11.11° C | 71% | 1017.5 hPa | 0 mm | - | 0 W/m² | - |
| 1777876599 | 11.11° C | 72% | 1017.5 hPa | 0 mm | - | 0 W/m² | - |
* Rain latest hour (hover to see other rain measurements)
** Current wind speed in m/s (hover to see current wind gust speed)